Location: Piotrkow Trybunalski
(51.4000°N, 19.6830°E)
Time: 06:30:35
(UTC+02:00)

STRAND 1 - Pass Details

Date: 29 February 2024
Orbit: 764 x 779 km, 98.4° (Epoch: 24 April)

Event Time Altitude Azimuth Distance (km) Brightness Sun altitude
Rises 18:41:15 0° 13° (NNE) 3,270 ? -13.3°
Reaches altitude 10° 18:43:34 10° 11° (NNE) 2,336 ? -13.7°
Maximum altitude 18:48:42 72° 288° (WNW) 816 ? -14.5°
Drops below altitude 10° 18:53:47 10° 205° (SSW) 2,310 ? -15.3°
Sets 18:56:04 0° 204° (SSW) 3,230 ? -15.6°
